{"data":{"norad_id":60267,"intl_designator":"2024-131N","name":"STARLINK-32158","alt_names":[],"object_type":"PAYLOAD","status":"ACTIVE","operator":null,"country":"US","launch_date":"2024-07-27","launch_site_code":"AFETR","launch_vehicle":null,"mission":null,"orbit_class":"UNKNOWN","rcs_meters":null,"size_class":null,"mass_kg":null,"dimensions":null,"purposes":["comms"],"wikipedia_slug":null,"has_3d_model":false,"image_url":null,"decayed_at":null,"tle_current":{"epoch":"2026-09-21T06:38:33.582048Z","epoch_age_seconds":114686,"freshness":"FRESH","line1":"1 60267U 24131N   26264.27677757 -.00000541  00000+0 -48747-5 0  9996","line2":"2 60267  53.1581 221.8350 0001527  84.8245 275.2932 15.34392118121598","mean_motion":15.34392118,"eccentricity":0.0001527,"inclination_deg":53.1581,"raan_deg":221.835,"arg_perigee_deg":84.8245,"mean_anomaly_deg":275.2932,"bstar":-4.8747e-6,"rev_number":12159,"period_min":93.848240166729,"perigee_km":461.68206739045,"apogee_km":463.77126715444,"semimajor_km":6840.8636672724,"source":"CELESTRAK","updated_at":"2026-09-22T09:00:49.188576Z"}}}